Location: Duingen
(52.0063°N, 9.6983°E)
Time: 11:58:13
(UTC+00:00)

Daily predictions for brighter satellites

Satellite Brightness Start Highest point End
(mag) Time Altitude Azimuth Time Altitude Azimuth Time Altitude Azimuth
Cosmos 1603 3.8 20:22:50 10° SSW 20:28:33 87° WNW 20:34:21 10° NNE
Cosmos 1455 Rocket 3.1 20:24:18 10° N 20:28:42 89° E 20:33:02 10° S
NOSS 2-1 (C) 4.1 20:24:58 10° NW 20:29:01 62° NE 20:34:39 10° ESE
CZ-4B R/B 2.1 20:29:31 10° N 20:32:21 47° WNW 20:35:07 10° SSW
USA 245 3.9 20:29:59 10° S 20:34:57 70° WSW 20:38:57 10° NNW
S3M 4.3 20:32:03 10° SSW 20:38:15 74° WNW 20:44:26 10° N
Cosmos 1025 Rocket 3.0 20:34:54 10° S 20:39:07 66° E 20:43:23 10° NNE
NOSS 2-1 (D) 4.0 20:35:15 10° NW 20:39:24 71° NE 20:45:12 10° SE
APEX 4.4 20:37:06 10° SW 20:42:50 68° NW 20:47:34 10° NNE
Cosmos 1371 Rocket 4.2 20:38:22 10° S 20:43:26 54° ESE 20:48:35 10° NNE
Spot 2 Rocket 3.6 20:38:59 10° SSE 20:44:05 84° WSW 20:49:13 10° NNW
IRAS Rocket 4.4 20:38:29 10° NNE 20:44:08 81° WNW 20:49:43 10° SSW
Cosmos 1607 4.2 20:44:08 10° S 20:50:01 46° ESE 20:55:53 10° NE
Helios 1A Rocket 3.1 20:46:26 10° S 20:50:29 73° WSW 20:54:37 10° NNW
Cosmos 1455 2.2 20:48:24 10° N 20:52:12 75° ENE 20:56:01 10° SSE
Cosmos 1980 Rocket 4.0 20:49:45 10° NNW 20:54:21 24° NE 20:58:55 10° E
ATLAS 2AS CENTAUR R/B 2.8 20:47:12 10° NW 20:54:28 86° SW 21:01:12 10° SE
Cosmos 1536 Rocket 4.3 20:53:32 10° SSE 20:57:30 37° E 21:01:31 10° NNE
SPOT 3 Rocket 4.5 20:53:33 10° S 20:58:31 45° W 21:03:32 10° NNW
Cosmos 1697 Rocket 3.8 20:53:37 10° NNW 20:58:49 37° NE 21:04:00 10° ESE
H-2A R/B 4.3 20:57:48 10° N 21:01:29 27° WNW 21:05:12 10° WSW
USA 234 3.3 20:55:15 10° ESE 21:01:50 86° SSW 21:08:27 10° WNW
Lacrosse 4 Rocket 3.2 20:58:40 10° WSW 21:02:29 35° NW 21:06:15 10° NNE
Meteor 1-24 Rocket 3.6 20:58:29 10° S 21:03:48 90° E 21:09:14 10° NNE
Cosmos 1975 Rocket 3.6 20:59:28 10° SSW 21:03:53 63° WNW 21:08:19 10° N
Cosmos 1624 Rocket 4.0 20:59:36 10° SSW 21:04:49 73° ESE 21:10:03 10° NNE
SPOT 5 3.3 21:01:47 10° S 21:06:10 53° W 21:10:28 10° NNW
Cosmos 2184 Rocket 4.1 21:03:52 10° N 21:10:03 70° ENE 21:15:55 11° SSE
Cosmos 2228 3.5 21:08:37 10° N 21:12:44 47° ENE 21:16:17 13° SSE
CZ-2C R/B 3.7 21:08:49 10° NNE 21:13:30 83° ESE 21:18:03 10° SSW
RESURS DK-1 3.2 21:12:48 10° NNW 21:16:47 43° NE 21:20:38 11° ESE
Resurs 01 Rocket 4.3 21:15:50 10° WSW 21:18:02 13° W 21:20:16 10° WNW
Cosmos 1544 Rocket 4.1 21:15:45 10° NNW 21:19:59 54° W 21:24:12 10° S
Lacrosse 5 rocket 2.0 21:17:36 10° WNW 21:21:13 39° SW 21:24:15 15° SSE
ATLAS 5 CENTAUR R/B 4.4 21:09:52 10° NW 21:21:34 32° WSW 21:25:50 10° SSW
Cosmos 1656 3.7 21:16:24 10° NNW 21:21:53 84° ENE 21:26:45 14° SSE
Cosmos 2056 Rocket 3.7 21:19:24 10° SSW 21:24:48 82° WNW 21:30:16 10° NNE
Cosmos 1741 Rocket 4.2 21:21:42 10° NNW 21:27:02 70° ENE 21:31:37 14° SE
Cosmos 1726 Rocket 4.4 21:25:22 10° N 21:29:25 37° ENE 21:32:43 14° SE
ERS-1 Rocket 4.0 21:25:04 10° SSW 21:29:49 41° W 21:34:37 10° NNW
Cosmos 1833 Rocket 3.7 21:27:38 14° SSE 21:31:26 27° ESE 21:36:06 10° NE
Lacrosse 5 2.1 21:27:07 10° WNW 21:32:08 57° SW 21:36:18 15° SE
ALOS 2 4.2 21:30:19 10° ESE 21:33:53 25° ENE 21:37:28 10° N
Cosmos 1420 Rocket 4.1 21:30:44 10° SSW 21:35:59 81° WNW 21:41:19 10° NNE
Tiangong 3.3 21:35:08 10° SSW 21:36:06 12° SSW 21:36:06 12° SSW
NOSS 2-1 (E) 4.3 21:33:36 10° NW 21:38:00 58° SW 21:43:01 15° SSE
Cosmos 2084 3.1 21:34:57 10° SSW 21:38:44 62° SE 21:42:35 10° NE
SL-8 R/B 3.8 21:34:48 10° W 21:39:31 57° S 21:44:16 10° ESE
Cosmos 1271 Rocket 4.2 21:39:40 10° NNW 21:43:16 33° W 21:46:49 10° SSW
Cosmos 2082 Rocket 3.9 21:45:07 12° SE 21:47:55 17° E 21:51:27 10° ENE
FALCON 9 DEB 3.0 21:46:40 10° WSW 21:49:57 88° NNW 21:53:14 10° ENE
ARIANE 5 R/B 3.7 21:46:38 11° SSW 21:50:44 39° W 21:54:56 10° NNW
Terra 3.2 21:46:33 10° SSW 21:50:50 33° W 21:55:08 10° NNW
Cosmos 2058 Rocket 3.9 21:51:03 10° N 21:55:13 40° ENE 21:58:21 16° SE
Cosmos 2344 4.2 21:49:18 10° NW 21:57:51 86° NE 22:09:44 10° SE
USA 276 3.0 21:58:54 25° SSE 21:58:54 25° SSE 22:01:09 10° E
Cosmos 1850 Rocket 4.1 21:53:55 10° NNW 21:59:07 67° WSW 22:03:00 18° S
SAR-Lupe-4 3.6 21:57:14 10° NNE 22:00:50 83° WNW 22:03:44 15° SSW
GP-B 3.3 21:59:37 10° N 22:04:03 62° E 22:07:04 20° SSE
Cosmos 1892 Rocket 4.1 22:02:20 19° SSE 22:05:10 45° E 22:09:22 10° NNE
USA 267 3.2 22:02:24 10° ENE 22:09:00 83° SSE 22:15:34 10° WSW
Cosmos 1408 3.3 22:13:04 22° SE 22:14:41 35° E 22:17:52 10° NNE
Spot 4 3.8 22:11:56 19° SSE 22:15:20 83° ENE 22:20:09 10° NNW
COSMOS 2406 4.0 22:13:20 18° SSE 22:16:53 36° ESE 22:22:07 10° NE
Cosmos 1867 4.3 22:13:15 10° NW 22:18:38 53° NE 22:23:58 10° ESE
ASTEX 1 3.5 22:15:33 10° N 22:20:35 80° W 22:24:31 17° SSW
ADEOS Rocket 3.7 22:15:49 16° SSE 22:21:38 69° ENE 22:29:13 10° NNW
Cosmos 1331 Rocket 4.1 22:19:07 16° S 22:23:18 68° ESE 22:28:36 10° NNE
Cosmos 2369 3.9 22:17:34 10° NNW 22:23:20 75° ENE 22:27:54 17° SE
TSX-5 4.4 22:19:41 10° SSW 22:24:08 90° SW 22:30:01 10° NE
Nadezhda 1 Rocket 4.2 22:18:57 12° SSW 22:24:39 71° WNW 22:30:44 10° N
Meteor 1-11 4.4 22:22:19 19° S 22:26:17 59° E 22:31:47 10° NNE
Cosmos 1452 Rocket 3.7 22:21:23 10° SSW 22:26:39 74° WNW 22:31:56 10° NNE
SL-16 R/B 3.9 22:22:30 10° NNW 22:27:27 30° NE 22:32:24 10° ESE
Cosmos 1825 3.5 22:26:15 19° SE 22:27:58 26° E 22:31:09 10° NNE
H-2A R/B 3.9 22:26:48 10° NNE 22:30:54 49° E 22:33:15 23° SSE
Cosmos 1328 4.0 22:28:56 19° SSW 22:31:49 72° WNW 22:35:51 10° N
Cosmos 724 4.5 22:28:11 10° SW 22:33:58 74° NW 22:39:49 10° NE
Cosmos 1980 Rocket 2.2 22:33:27 10° NNW 22:39:13 85° ENE 22:43:31 18° SSE
Cosmos 1110 Rocket 4.1 22:37:53 13° SSW 22:42:32 83° WNW 22:47:53 10° NNE
Cosmos 1697 Rocket 3.0 22:37:34 10° NW 22:43:02 53° WSW 22:46:39 21° S
ERS-2 3.1 22:40:15 10° NNE 22:43:30 31° E 22:44:58 23° SE
ATLAS 2AS CENTAUR R/B 4.1 22:39:07 10° WNW 22:44:26 24° WSW 22:48:38 13° SSW
USA 234 4.0 22:41:26 19° S 22:45:23 36° SW 22:51:21 10° WNW
Cosmos 1302 Rocket 4.2 22:43:53 21° S 22:47:09 55° ESE 22:52:15 10° NNE
Cosmos 1892 2.6 22:48:56 26° S 22:50:57 81° E 22:54:43 10° NNE
SJ 16-02 3.4 22:49:05 10° N 22:52:41 24° NE 22:56:16 10° ESE
RESURS DK-1 3.7 22:51:06 10° NW 22:54:36 27° WSW 22:56:28 19° SSW
In-Cosmos 22 Rocket 4.3 22:52:54 21° S 22:56:41 69° E 23:02:11 10° NNE
SL-8 Rocket 4.2 22:53:35 10° NNW 22:59:49 68° W 23:04:12 20° S
Cosmos 2218 Rocket 4.2 22:59:12 10° NNW 23:05:35 72° W 23:10:07 20° S
Cosmos 2322 Rocket 3.5 23:03:40 10° NNW 23:08:58 38° NE 23:14:15 10° ESE
Cosmos 2278 3.7 23:03:29 10° NNW 23:09:15 86° ENE 23:13:40 18° SSE
Cosmos 1758 Rocket 4.5 23:07:07 21° SE 23:09:27 37° E 23:13:29 10° NNE
Aureole 1 Rocket 4.4 23:03:23 10° NNW 23:09:49 74° ENE 23:16:50 14° SSE
ALOS 2 3.1 23:07:30 23° SSW 23:09:59 48° W 23:14:16 10° NNW
Cosmos 2366 rocket 4.2 23:07:28 10° NNW 23:13:43 64° W 23:18:08 20° S
Lacrosse 5 3.7 23:11:32 10° W 23:14:12 14° WSW 23:15:28 13° SW
Cosmos 1833 Rocket 3.1 23:09:24 10° SW 23:14:59 63° NW 23:20:35 10° NNE
Cosmos 2084 Rocket 3.4 23:13:43 10° NW 23:17:32 55° SW 23:19:33 26° SSE
Cosmos 1812 Rocket 3.6 23:13:34 10° N 23:18:04 77° ENE 23:20:47 24° SSE
SL-8 R/B 4.2 23:17:13 10° W 23:21:38 37° SSW 23:24:35 18° SE
Geosat FO 4.4 23:21:57 27° SSE 23:23:42 79° WSW 23:27:18 10° NNW
Cosmos 968 Rocket 4.1 23:20:22 10° NW 23:25:14 42° WSW 23:28:10 22° SSW
Cosmos 2221 4.5 23:22:15 10° NNE 23:25:45 23° ENE 23:29:14 10° ESE
FALCON 9 DEB 3.1 23:23:03 10° W 23:26:19 77° N 23:29:36 10° E
Cosmos 2082 Rocket 2.2 23:26:56 19° SSW 23:31:11 84° ESE 23:36:55 10° NNE
Resurs 1-4 Rocket 4.3 23:28:47 10° NE 23:31:26 14° E 23:34:05 10° ESE
ATLAS 5 CENTAUR R/B 2.7 23:30:58 19° SE 23:31:59 21° ESE 23:35:09 10° ENE
Cosmos 1633 2.5 23:31:19 30° S 23:32:53 69° E 23:36:22 10° NNE
USA 276 1.9 23:30:46 10° WSW 23:33:38 55° S 23:36:30 10° E
Cosmos 1602 Rocket 3.5 23:32:14 25° S 23:34:41 83° E 23:39:02 10° NNE
BREEZE-M DEB (TANK) 4.1 23:31:22 10° W 23:35:06 64° S 23:50:39 10° ESE
Cosmos 1869 4.2 23:37:03 10° NNW 23:40:36 35° W 23:42:27 22° SW
Cosmos 1486 Rocket 4.1 23:38:28 10° NNW 23:43:37 61° WSW 23:46:54 22° S
Cosmos 2360 Rocket 3.1 23:45:13 10° NNW 23:50:44 48° NE 23:56:13 10° SE
USA 267 3.8 23:45:28 10° ENE 23:51:55 62° N 23:58:20 10° W
Cosmos 1934 Rocket 4.1 23:46:59 10° N 23:53:04 72° ENE 23:57:56 17° SSE
